CZ-3B DEB, 42475

Orbit data source: Space-Track

CZ-3B DEB, 42475 is space debris in HEO originally from a launch on Mon, 19 Dec 2011 UTC launched from the Xichang Space Center, China (XSC). Debris objects in space refer to the collection of defunct objects orbiting the Earth. Examples of debris include non-operational satellites, rocket bodies, and fragments generated from explosions, collisions, or faulty payload assembly.

Loading next visibility...
Identifier
42475, 2011-077AQ
Orbit
HEO
Country
Flag of CNCN / PRC
Related business
Manufacturer
CALT
Mission
Spacecraft
Bus & Motor
Unknown
Mass
Unknown
Launch date (UTC)
2011-12-19 (14 years ago)
Launch vehicle
Unknown
Launch site
Xichang Space Center, China (XSC)
Object type
Payload
Rocket body
Debris
Shape & HBR
Unknown shape, 0.2 m
Radar Cross Section
Medium (>0.1 m² and <1 m²)

Expand to show TLE details & history
Last TLE update: 2 days ago

TLE from 2 days ago
0 CZ-3B DEB
1 42475U 11077AQ  26124.62814041  .00000019  00000-0  54508-2 0  9993
2 42475  26.5254 316.2605 7422204 109.2429 338.6816  1.91452860 32050
Epoch: 2026-05-04T15:04Z
TLE epoch observation values (Epoch: 2026-05-04T15:04:31.331Z)
Latitude
-0.00001°
Longitude
-132.44456°
Altitude
9,844.122 km
Speed
5.881 km/s
True Right ascension
21h 04m 48s
True Declination
0° 00' 00"
Sunlit
Object was in daylight at epoch
Visualization orbit readout
Latitude
Unknown
Longitude
Unknown
Altitude
Unknown
Speed
Unknown
Apparent Right ascension
Unknown
Apparent Declination
Unknown
Sunlit
N/A
Visualization observer readout
Local Sidereal Time
11:16:07
Azimuth
Unknown
Elevation
Unknown
Doppler factor
Unknown
Orbital elements
Apogee altitude
41,359.03 km
Perigee altitude
685.073 km
Semi-major axis
27,400.188 km
Eccentricity
0.74222
Inclination
26.5254°
RAAN
316.2605°
Arg. of periapsis
109.2429°
True anomaly
250.66185°
Mean anomaly
338.6816°
Eccentric anomaly
303.02722°
Mean motion
0.47853 °/min
Orbital period
752.3 mins
BSTAR
0.0054508
Loading maneuver chart data...
Computing Atmospheric mass density...
Loading historical data...
Loading historical data...
Loading historical data...
Loading historical data...
Loading historical data...
Loading historical data...
Loading historical data...

Documentation

Showing up to 5 results
|